Torna al catalogo

FENGYUN 1C DEB

AttivoSSO
NORAD 29877·DEBRIS·🇨🇳 China

Lanciato May 10, 1999 da Taiyuan Satellite Launch Center

Loading…

Prossimi Passaggi (prossime 24 ore)

TLE

AggiornatoSource: Space-Track

Epoca: Sep 14, 2026, 00:01 UTC

1 29877U 99025FX  26257.00104921  .00000565  00000-0  25483-3 0  9998
2 29877  98.5409 259.9327 0046990 134.4707 281.7381 14.25323786 18898

Traccia FENGYUN 1C DEB in tempo reale con AllMySat

Download on the App Store